Simultaneous Nadir Overpasses (SNOs) Predictions

Prediction of SNOs between GOES-17 and TERRA Satellite Orbit:

Table of predicted SNOs for the next 14.0 days since TLE Epoch: 1/24/2025
Index Date Time (GOES-17) GOES-17 Lat,Lon TERRA Lat,Lon Distance(km) Time Diff (sec)
1 01/25/2025 04:18:40 0.00,-104.68 0.56,-101.93 312.72 80
2 01/25/2025 16:38:17 -0.01,-104.70 0.38,-106.71 227.79 80
3 01/27/2025 16:22:21 -0.00,-104.70 -0.53,-102.22 281.44 80
4 01/28/2025 04:42:06 0.01,-104.68 -0.50,-107.02 266.00 80
5 01/30/2025 04:20:50 0.00,-104.68 0.47,-102.54 243.37 80
6 01/30/2025 16:40:25 -0.01,-104.69 0.53,-107.31 297.76 80
7 02/01/2025 16:24:28 0.00,-104.69 -0.41,-102.82 212.49 80
8 02/02/2025 04:44:13 0.01,-104.69 -0.58,-107.63 333.90 80
9 02/04/2025 04:22:54 0.00,-104.68 0.30,-103.13 176.35 80
10 02/04/2025 16:42:30 -0.01,-104.68 0.69,-107.90 365.55 80
11 02/06/2025 16:26:32 -0.01,-104.68 -0.28,-103.41 144.80 80
12 02/07/2025 04:46:16 0.02,-104.68 -0.73,-108.21 400.74 80
